Date String (YYYY-MM-DD hh:mm:ss) UTC,Instrument flags,Ambient pressure (hPa),Sample flow (lpm),Bypass flow (lpm),Sample temperature (°C),Ambient temperature (°C),ASC tube jacket temperature (°C),LED temperature (°C),Box temperature (°C),Sample RH (%),Span deviation,Mass concentration (μg/m³),Mass concentration (μg/m³),Mass concentration (μg/m³)
DateTimeUTC,F1_M11,P_M11,Q1_M11,Q2_M11,T1_M11,T2_M11,T3_M11,T4_M11,T5_M11,U1_M11,ZSPAN_M11,X0_M11,X2_M11,X1_M11
2022-06-02 10:00:00,,0828.7,5.01,0.00,25.8,24.6,00.0,34.7,27.7,22.7,0000.0,0007.77,0004.56,0004.26
2022-06-02 10:01:00,,0828.7,4.99,0.00,25.8,24.6,00.0,34.7,27.7,22.8,0000.0,0007.66,0004.51,0004.22
2022-06-02 10:02:00,,0828.7,5.01,0.00,25.8,24.6,00.0,34.7,27.7,22.8,0000.0,0007.84,0004.50,0004.21
2022-06-02 10:03:00,,0828.6,4.99,0.00,25.8,24.6,00.0,34.7,27.7,22.8,0000.0,0007.91,0004.50,0004.21
2022-06-02 10:04:00,,0828.7,5.00,0.00,25.7,24.6,00.0,34.7,27.7,22.7,0000.0,0007.87,0004.51,0004.20
2022-06-02 10:05:00,,0828.6,5.00,0.00,25.7,24.6,00.0,34.7,27.7,22.7,0000.0,0007.59,0004.51,0004.21
2022-06-02 10:06:00,,0828.7,5.01,0.00,25.7,24.6,00.0,34.7,27.7,22.7,0000.0,0007.49,0004.50,0004.20
2022-06-02 10:07:00,,0828.6,4.99,0.00,25.7,24.6,00.0,34.7,27.7,22.6,0000.0,0007.54,0004.50,0004.18
2022-06-02 10:08:00,,0828.6,5.01,0.00,25.7,24.5,00.0,34.7,27.7,22.6,0000.0,0007.77,0004.47,0004.15
2022-06-02 10:09:00,,0828.6,5.00,0.00,25.7,24.5,00.0,34.7,27.7,22.6,0000.0,0007.93,0004.45,0004.13
2022-06-02 10:10:00,,0828.7,4.99,0.00,25.7,24.5,00.0,34.7,27.7,22.6,0000.0,0007.93,0004.45,0004.11
2022-06-02 10:11:00,,0828.7,5.00,0.00,25.7,24.5,00.0,34.7,27.6,22.5,0000.0,0007.94,0004.43,0004.08
2022-06-02 10:12:00,,0828.7,5.00,0.00,25.7,24.5,00.0,34.7,27.6,22.5,0000.0,0007.96,0004.41,0004.05
2022-06-02 10:13:00,,0828.7,5.01,0.00,25.7,24.5,00.0,34.7,27.7,22.5,0000.0,0007.84,0004.38,0004.01
2022-06-02 10:14:00,,0828.6,5.00,0.00,25.7,24.5,00.0,34.7,27.6,22.5,0000.0,0007.69,0004.37,0003.99
2022-06-02 10:15:00,,0828.6,5.00,0.00,25.7,24.5,00.0,34.6,27.6,22.5,0000.0,0007.63,0004.34,0003.96
2022-06-02 10:16:00,,0828.7,5.00,0.00,25.7,24.5,00.0,34.6,27.6,22.5,0000.0,0007.61,0004.29,0003.92
2022-06-02 10:17:00,,0828.6,4.99,0.00,25.7,24.5,00.0,34.6,27.6,22.5,0000.0,0007.68,0004.27,0003.89
2022-06-02 10:18:00,,0828.6,5.00,0.00,25.7,24.5,00.0,34.6,27.6,22.5,0000.0,0007.77,0004.24,0003.87
2022-06-02 10:19:00,,0828.6,4.99,0.00,25.7,24.5,00.0,34.6,27.6,22.5,0000.0,0007.54,0004.22,0003.85
2022-06-02 10:20:00,,0828.8,5.01,0.00,25.7,24.5,00.0,34.6,27.6,22.4,0000.0,0007.39,0004.20,0003.82
2022-06-02 10:21:00,,0828.6,5.00,0.00,25.7,24.5,00.0,34.6,27.6,22.3,0000.0,0007.21,0004.14,0003.78
2022-06-02 10:22:00,,0828.7,4.99,0.00,25.7,24.5,00.0,34.6,27.6,22.3,0000.0,0007.14,0004.08,0003.74
2022-06-02 10:23:00,,0828.7,5.00,0.00,25.7,24.5,00.0,34.6,27.6,22.2,0000.0,0007.30,0004.05,0003.70
2022-06-02 10:24:00,,0828.7,5.01,0.00,25.7,24.5,00.0,34.6,27.6,22.2,0000.0,0007.25,0004.05,0003.68
2022-06-02 10:25:00,,0828.6,5.00,0.00,25.7,24.5,00.0,34.6,27.6,22.1,0000.0,0007.05,0003.98,0003.64
2022-06-02 10:26:00,,0828.7,5.01,0.00,25.7,24.5,00.0,34.6,27.6,22.1,0000.0,0007.06,0003.95,0003.60
2022-06-02 10:27:00,,0828.7,5.01,0.00,25.7,24.5,00.0,34.6,27.6,22.2,0000.0,0007.02,0003.94,0003.57
2022-06-02 10:28:00,,0828.7,5.01,0.00,25.7,24.4,00.0,34.6,27.6,22.2,0000.0,0006.81,0003.92,0003.56
2022-06-02 10:29:00,,0828.7,4.99,0.00,25.7,24.4,00.0,34.6,27.6,22.2,0000.0,0007.22,0003.91,0003.55
2022-06-02 10:30:00,,0828.7,5.01,0.00,25.7,24.4,00.0,34.6,27.6,22.2,0000.0,0007.78,0003.88,0003.53
2022-06-02 10:31:00,,0828.7,4.99,0.00,25.7,24.4,00.0,34.6,27.6,22.2,0000.0,0007.63,0003.85,0003.52
2022-06-02 10:32:00,,0828.6,5.01,0.00,25.7,24.4,00.0,34.6,27.6,22.3,0000.0,0007.58,0003.83,0003.52
2022-06-02 10:33:00,,0828.6,4.99,0.00,25.7,24.4,00.0,34.6,27.6,22.3,0000.0,0007.54,0003.84,0003.54
2022-06-02 10:34:00,,0828.8,5.00,0.00,25.6,24.4,00.0,34.6,27.5,22.4,0000.0,0007.39,0003.85,0003.56
2022-06-02 10:35:00,,0829.1,5.00,0.00,25.6,24.4,00.0,34.6,27.5,22.4,0000.0,0007.27,0003.84,0003.58
2022-06-02 10:36:00,,0829.0,4.98,0.00,25.6,24.4,00.0,34.6,27.5,22.4,0000.0,0007.19,0003.85,0003.60
2022-06-02 10:37:00,,0829.0,5.01,0.00,25.6,24.4,00.0,34.6,27.5,22.4,0000.0,0007.11,0003.86,0003.62
2022-06-02 10:38:00,,0828.8,4.99,0.00,25.6,24.4,00.0,34.6,27.5,22.4,0000.0,0007.03,0003.87,0003.66
2022-06-02 10:39:00,,0828.5,4.99,0.00,25.6,24.4,00.0,34.5,27.5,22.4,0000.0,0007.08,0003.87,0003.68
2022-06-02 10:40:00,,0828.5,5.00,0.00,25.6,24.4,00.0,34.5,27.5,22.4,0000.0,0007.20,0003.89,0003.70
2022-06-02 10:41:00,,0828.4,4.99,0.00,25.6,24.4,00.0,34.5,27.5,22.5,0000.0,0005.61,0003.92,0003.73
2022-06-02 10:42:00,,0828.4,5.01,0.00,25.6,24.4,00.0,34.5,27.5,22.5,0000.0,0005.79,0003.97,0003.76
2022-06-02 10:43:00,,0828.4,5.00,0.00,25.6,24.4,00.0,34.5,27.5,22.4,0000.0,0006.08,0004.05,0003.79
2022-06-02 10:44:00,,0828.5,5.00,0.00,25.6,24.4,00.0,34.5,27.5,22.4,0000.0,0006.31,0004.10,0003.82
2022-06-02 10:45:00,,0828.4,5.00,0.00,25.6,24.4,00.0,34.5,27.5,22.4,0000.0,0006.73,0004.13,0003.83
2022-06-02 10:46:00,,0828.5,4.98,0.00,25.6,24.4,00.0,34.5,27.5,22.3,0000.0,0006.86,0004.13,0003.83
2022-06-02 10:47:00,,0828.5,5.01,0.00,25.6,24.4,00.0,34.5,27.5,22.3,0000.0,0007.42,0004.13,0003.82
2022-06-02 10:48:00,,0828.5,5.01,0.00,25.6,24.4,00.0,34.5,27.5,22.3,0000.0,0007.46,0004.13,0003.81
2022-06-02 10:49:00,,0828.5,5.00,0.00,25.6,24.3,00.0,34.5,27.5,22.2,0000.0,0007.47,0004.14,0003.80
2022-06-02 10:50:00,,0828.5,4.99,0.00,25.6,24.3,00.0,34.5,27.5,22.2,0000.0,0007.45,0004.13,0003.78
2022-06-02 10:51:00,,0828.5,5.01,0.00,25.6,24.3,00.0,34.5,27.5,22.2,0000.0,0007.43,0004.14,0003.78
2022-06-02 10:52:00,,0828.5,4.99,0.00,25.6,24.3,00.0,34.5,27.5,22.3,0000.0,0007.43,0004.14,0003.77
2022-06-02 10:53:00,,0828.5,5.01,0.00,25.6,24.3,00.0,34.5,27.4,22.3,0000.0,0007.41,0004.12,0003.75
2022-06-02 10:54:00,,0828.4,5.00,0.00,25.5,24.3,00.0,34.5,27.5,22.3,0000.0,0007.26,0004.06,0003.73
2022-06-02 10:55:00,,0828.4,4.99,0.00,25.5,24.3,00.0,34.5,27.4,22.3,0000.0,0007.17,0004.02,0003.71
2022-06-02 10:56:00,,0828.4,5.00,0.00,25.5,24.3,00.0,34.5,27.5,22.3,0000.0,0007.00,0003.97,0003.69
2022-06-02 10:57:00,,0828.6,5.01,0.00,25.5,24.3,00.0,34.5,27.4,22.3,0000.0,0007.14,0003.96,0003.69
2022-06-02 10:58:00,,0829.0,4.99,0.00,25.5,24.3,00.0,34.5,27.4,22.3,0000.0,0006.68,0003.96,0003.68
2022-06-02 10:59:00,,0829.1,5.01,0.00,25.5,24.3,00.0,34.5,27.4,22.3,0000.0,0006.48,0003.92,0003.66
